time, beta470, beta532, beta650
yyyy/mm/dd HH:MM:SS.fff, counts, counts, counts
2023/06/15 11:00:06.320, 125, 187, 91
2023/06/15 11:00:07.456, 124, 146, 90
2023/06/15 11:00:08.576, 123, 146, 90
2023/06/15 11:00:09.711, 121, 148, 89
2023/06/15 11:00:10.847, 121, 151, 87
2023/06/15 11:00:11.967, 119, 148, 85
2023/06/15 11:00:13.103, 122, 146, 88
2023/06/15 11:00:14.239, 121, 147, 87
2023/06/15 11:00:15.359, 119, 150, 89
2023/06/15 11:00:16.495, 133, 149, 92
2023/06/15 11:00:17.615, 127, 151, 91
2023/06/15 11:00:18.751, 121, 146, 90
2023/06/15 11:00:19.887, 118, 144, 91
2023/06/15 11:00:21.007, 122, 149, 87
2023/06/15 11:00:22.142, 120, 146, 89
2023/06/15 11:00:23.263, 120, 145, 89
2023/06/15 11:00:24.399, 125, 146, 93
2023/06/15 11:00:25.535, 125, 146, 88
2023/06/15 11:00:26.653, 120, 147, 92
2023/06/15 11:00:27.790, 124, 149, 89
2023/06/15 11:00:28.910, 120, 151, 93
2023/06/15 11:00:30.046, 121, 147, 90
2023/06/15 11:00:31.166, 125, 147, 91
2023/06/15 11:00:32.302, 121, 151, 89
2023/06/15 11:00:33.438, 122, 159, 92
2023/06/15 11:00:34.558, 121, 155, 93
2023/06/15 11:00:35.694, 120, 150, 91
2023/06/15 11:00:36.814, 118, 148, 88
2023/06/15 11:00:37.949, 120, 152, 91
2023/06/15 11:00:39.086, 123, 156, 89
2023/06/15 11:00:40.206, 121, 151, 91
2023/06/15 11:00:41.342, 123, 148, 92
2023/06/15 11:00:42.462, 119, 148, 88
2023/06/15 11:00:43.597, 120, 148, 91
2023/06/15 11:00:44.733, 120, 149, 89
2023/06/15 11:00:45.853, 119, 147, 86
2023/06/15 11:00:46.990, 121, 146, 92
2023/06/15 11:00:48.125, 122, 148, 86
2023/06/15 11:00:49.245, 122, 151, 87
2023/06/15 11:00:50.381, 121, 162, 90
2023/06/15 11:00:51.501, 118, 155, 88
2023/06/15 11:00:52.637, 113, 152, 90
2023/06/15 11:00:53.773, 116, 164, 89
2023/06/15 11:00:54.893, 124, 157, 93
2023/06/15 11:00:56.029, 122, 152, 95
2023/06/15 11:00:57.148, 122, 155, 91
2023/06/15 11:00:58.284, 125, 156, 90
2023/06/15 11:00:59.420, 121, 148, 92
2023/06/15 11:01:00.539, 123, 145, 91
2023/06/15 11:01:01.676, 118, 151, 89
2023/06/15 11:01:02.796, 118, 152, 90
2023/06/15 11:01:03.931, 118, 148, 92
2023/06/15 11:01:05.068, 119, 148, 90
2023/06/15 11:01:06.187, 116, 149, 93
2023/06/15 11:01:07.324, 114, 148, 86
2023/06/15 11:01:08.444, 118, 154, 92
2023/06/15 11:01:09.580, 131, 152, 94
2023/06/15 11:01:10.716, 123, 149, 91
2023/06/15 11:01:11.836, 121, 148, 92
2023/06/15 11:01:12.972, 121, 148, 92
2023/06/15 11:01:14.091, 119, 148, 88
2023/06/15 11:01:15.228, 121, 154, 89
2023/06/15 11:01:16.363, 119, 146, 88
2023/06/15 11:01:17.483, 116, 149, 88
2023/06/15 11:01:18.619, 119, 148, 83
2023/06/15 11:01:19.739, 120, 141, 89
2023/06/15 11:01:20.875, 122, 147, 88
2023/06/15 11:01:22.011, 119, 144, 90
2023/06/15 11:01:23.131, 119, 140, 85
2023/06/15 11:01:24.267, 119, 146, 87
2023/06/15 11:01:25.387, 116, 149, 88
2023/06/15 11:01:26.523, 118, 147, 88
2023/06/15 11:01:27.659, 117, 151, 86
2023/06/15 11:01:28.779, 120, 146, 88
2023/06/15 11:01:29.915, 120, 143, 90
2023/06/15 11:01:31.034, 114, 151, 88
2023/06/15 11:01:32.170, 118, 144, 91
2023/06/15 11:01:33.306, 118, 146, 93
2023/06/15 11:01:34.426, 114, 151, 91
2023/06/15 11:01:35.562, 116, 146, 90
2023/06/15 11:01:36.682, 115, 145, 90
2023/06/15 11:01:37.818, 116, 145, 90
2023/06/15 11:01:38.954, 116, 144, 90
2023/06/15 11:01:40.074, 115, 145, 88
2023/06/15 11:01:41.210, 117, 145, 89
2023/06/15 11:01:42.330, 118, 147, 86
2023/06/15 11:01:43.466, 118, 144, 90
2023/06/15 11:01:44.602, 111, 147, 89
2023/06/15 11:01:45.722, 115, 145, 87
2023/06/15 11:01:46.857, 117, 143, 88
2023/06/15 11:01:47.977, 118, 146, 90
2023/06/15 11:01:49.113, 118, 145, 87
2023/06/15 11:01:50.249, 120, 143, 84
2023/06/15 11:01:51.369, 119, 145, 90
2023/06/15 11:01:52.505, 122, 152, 89
2023/06/15 11:01:53.625, 119, 151, 91
2023/06/15 11:01:54.761, 114, 146, 93
2023/06/15 11:01:55.897, 120, 148, 87
2023/06/15 11:01:57.017, 118, 148, 90
2023/06/15 11:01:58.153, 122, 149, 85
2023/06/15 11:01:59.288, 111, 146, 90
2023/06/15 11:02:00.408, 110, 145, 87
2023/06/15 11:02:01.545, 117, 144, 86
2023/06/15 11:02:02.665, 116, 144, 85
2023/06/15 11:02:03.800, 118, 147, 90
2023/06/15 11:02:04.936, 115, 147, 89
2023/06/15 11:02:06.056, 113, 145, 85
2023/06/15 11:02:07.192, 134, 138, 87
2023/06/15 11:02:08.312, 115, 140, 91
2023/06/15 11:02:09.448, 117, 142, 85
2023/06/15 11:02:10.584, 117, 143, 86
2023/06/15 11:02:11.704, 117, 139, 85
2023/06/15 11:02:12.840, 113, 139, 87
2023/06/15 11:02:13.959, 111, 146, 89
2023/06/15 11:02:15.096, 112, 143, 87
2023/06/15 11:02:16.232, 114, 142, 88
2023/06/15 11:02:17.352, 120, 138, 85
2023/06/15 11:02:18.487, 112, 137, 87
2023/06/15 11:02:19.607, 112, 134, 87
2023/06/15 11:02:20.743, 110, 138, 95
2023/06/15 11:02:21.879, 115, 143, 88
2023/06/15 11:02:22.999, 119, 141, 91
2023/06/15 11:02:24.135, 113, 138, 89
2023/06/15 11:02:25.255, 113, 147, 86
2023/06/15 11:02:26.391, 112, 132, 86
2023/06/15 11:02:27.527, 112, 129, 86
2023/06/15 11:02:28.647, 119, 139, 89
2023/06/15 11:02:29.783, 109, 144, 86
2023/06/15 11:02:30.902, 108, 142, 93
2023/06/15 11:02:32.038, 112, 146, 86
2023/06/15 11:02:33.175, 112, 141, 86
2023/06/15 11:02:34.294, 112, 141, 85
2023/06/15 11:02:35.430, 107, 148, 87
2023/06/15 11:02:36.550, 111, 148, 85
2023/06/15 11:02:37.686, 106, 143, 85
2023/06/15 11:02:38.822, 107, 135, 85
2023/06/15 11:02:39.942, 111, 131, 87
2023/06/15 11:02:41.078, 111, 131, 87
2023/06/15 11:02:42.198, 116, 139, 87
2023/06/15 11:02:43.334, 111, 142, 84
2023/06/15 11:02:44.470, 109, 149, 86
2023/06/15 11:02:45.590, 109, 145, 86
2023/06/15 11:02:46.726, 111, 140, 87
2023/06/15 11:02:47.846, 114, 141, 87
2023/06/15 11:02:48.982, 110, 141, 87
2023/06/15 11:02:50.118, 112, 146, 85
2023/06/15 11:02:51.237, 111, 147, 87
2023/06/15 11:02:52.374, 113, 138, 94
2023/06/15 11:02:53.493, 115, 139, 85
2023/06/15 11:02:54.629, 114, 141, 85
2023/06/15 11:02:55.765, 114, 138, 84
2023/06/15 11:02:56.885, 115, 136, 84
2023/06/15 11:02:58.021, 114, 138, 82
2023/06/15 11:02:59.157, 115, 137, 85
2023/06/15 11:03:00.277, 123, 139, 84
2023/06/15 11:03:01.413, 109, 144, 87
2023/06/15 11:03:02.532, 108, 140, 87
2023/06/15 11:03:03.669, 108, 134, 86
2023/06/15 11:03:04.805, 109, 126, 86
2023/06/15 11:03:05.925, 107, 134, 85
2023/06/15 11:03:07.061, 111, 134, 86
2023/06/15 11:03:08.180, 111, 129, 85
2023/06/15 11:03:09.316, 109, 142, 83
2023/06/15 11:03:10.452, 108, 127, 85
2023/06/15 11:03:11.572, 109, 129, 86
2023/06/15 11:03:12.708, 111, 142, 87
2023/06/15 11:03:13.828, 106, 133, 85
2023/06/15 11:03:14.964, 109, 132, 81
2023/06/15 11:03:16.099, 110, 131, 84
2023/06/15 11:03:17.220, 110, 136, 87
2023/06/15 11:03:18.356, 108, 143, 82
2023/06/15 11:03:19.476, 109, 135, 87
2023/06/15 11:03:20.611, 106, 138, 84
2023/06/15 11:03:21.748, 109, 140, 86
2023/06/15 11:03:22.868, 117, 141, 84
2023/06/15 11:03:24.003, 112, 140, 88
2023/06/15 11:03:25.123, 113, 142, 99
2023/06/15 11:03:26.259, 106, 138, 87
2023/06/15 11:03:27.395, 107, 139, 89
2023/06/15 11:03:28.515, 106, 139, 83
2023/06/15 11:03:29.651, 104, 125, 84
2023/06/15 11:03:30.771, 108, 134, 83
2023/06/15 11:03:31.907, 110, 134, 86
2023/06/15 11:03:33.043, 112, 139, 87
2023/06/15 11:03:34.162, 110, 136, 85
2023/06/15 11:03:35.299, 107, 139, 88
2023/06/15 11:03:36.419, 107, 140, 87
2023/06/15 11:03:37.555, 109, 135, 84
2023/06/15 11:03:38.691, 107, 135, 84
2023/06/15 11:03:39.810, 107, 130, 87
2023/06/15 11:03:40.946, 106, 134, 85
2023/06/15 11:03:42.066, 106, 143, 84
2023/06/15 11:03:43.202, 107, 139, 83
2023/06/15 11:03:44.338, 104, 141, 90
2023/06/15 11:03:45.458, 106, 144, 85
2023/06/15 11:03:46.594, 103, 138, 84
2023/06/15 11:03:47.713, 109, 136, 83
2023/06/15 11:03:48.850, 111, 125, 83
2023/06/15 11:03:49.986, 106, 127, 88
2023/06/15 11:03:51.106, 113, 134, 85
2023/06/15 11:03:52.242, 109, 136, 84
2023/06/15 11:03:53.362, 110, 134, 85
2023/06/15 11:03:54.497, 113, 139, 88
2023/06/15 11:03:55.634, 105, 142, 85
2023/06/15 11:03:56.753, 106, 138, 84
2023/06/15 11:03:57.889, 104, 134, 84
2023/06/15 11:03:59.009, 105, 132, 82
2023/06/15 11:04:00.145, 109, 133, 80
2023/06/15 11:04:01.281, 108, 133, 80
2023/06/15 11:04:02.401, 111, 132, 80
2023/06/15 11:04:03.537, 108, 131, 81
2023/06/15 11:04:04.673, 107, 134, 84
2023/06/15 11:04:05.793, 111, 135, 85
2023/06/15 11:04:06.929, 110, 135, 80
2023/06/15 11:04:08.049, 110, 134, 82
2023/06/15 11:04:09.185, 106, 133, 82
2023/06/15 11:04:10.320, 108, 132, 79
2023/06/15 11:04:11.441, 102, 133, 83
2023/06/15 11:04:12.577, 109, 139, 85
2023/06/15 11:04:13.696, 105, 130, 82
2023/06/15 11:04:14.832, 106, 132, 84
2023/06/15 11:04:15.968, 107, 133, 83
2023/06/15 11:04:17.088, 107, 132, 80
2023/06/15 11:04:18.224, 106, 131, 87
2023/06/15 11:04:19.344, 101, 129, 81
2023/06/15 11:04:20.480, 104, 127, 82
2023/06/15 11:04:21.616, 102, 129, 82
2023/06/15 11:04:22.736, 106, 127, 79
2023/06/15 11:04:23.872, 109, 130, 82
2023/06/15 11:04:24.992, 107, 127, 83
2023/06/15 11:04:26.128, 108, 129, 81
2023/06/15 11:04:27.264, 107, 125, 81
2023/06/15 11:04:28.383, 107, 128, 79
2023/06/15 11:04:29.520, 106, 125, 80
2023/06/15 11:04:30.639, 105, 126, 82
2023/06/15 11:04:31.774, 99, 126, 82
2023/06/15 11:04:32.895, 106, 127, 82
2023/06/15 11:04:34.031, 107, 122, 82
2023/06/15 11:04:35.167, 110, 120, 79
2023/06/15 11:04:36.287, 106, 119, 79
2023/06/15 11:04:37.423, 107, 118, 82
2023/06/15 11:04:38.543, 108, 124, 78
2023/06/15 11:04:39.679, 101, 124, 79
2023/06/15 11:04:40.815, 103, 126, 80
2023/06/15 11:04:41.935, 102, 122, 83
2023/06/15 11:04:43.071, 100, 118, 82
2023/06/15 11:04:44.191, 99, 118, 77
2023/06/15 11:04:45.326, 103, 130, 77
2023/06/15 11:04:46.462, 105, 122, 80
2023/06/15 11:04:47.583, 104, 125, 77
2023/06/15 11:04:48.718, 106, 127, 78
2023/06/15 11:04:49.838, 105, 133, 78
2023/06/15 11:04:50.974, 106, 132, 79
2023/06/15 11:04:52.109, 106, 129, 81
2023/06/15 11:04:53.230, 99, 125, 85
2023/06/15 11:04:54.365, 105, 130, 81
2023/06/15 11:04:55.486, 107, 120, 81
2023/06/15 11:04:56.622, 102, 129, 79
2023/06/15 11:04:57.758, 100, 123, 80
2023/06/15 11:04:58.877, 98, 122, 81
2023/06/15 11:05:00.013, 100, 121, 82
2023/06/15 11:05:01.134, 101, 114, 82
2023/06/15 11:05:02.269, 100, 117, 86
2023/06/15 11:05:03.405, 102, 119, 80
2023/06/15 11:05:04.525, 102, 119, 80
2023/06/15 11:05:05.661, 102, 122, 84
2023/06/15 11:05:06.780, 100, 122, 81
2023/06/15 11:05:07.916, 103, 124, 86
2023/06/15 11:05:09.053, 99, 127, 80
2023/06/15 11:05:10.173, 106, 133, 78
2023/06/15 11:05:11.309, 105, 131, 79
2023/06/15 11:05:12.429, 109, 132, 81
2023/06/15 11:05:13.565, 111, 150, 81
2023/06/15 11:05:14.701, 116, 181, 77
2023/06/15 11:05:15.821, 110, 150, 80
2023/06/15 11:05:16.956, 109, 135, 78
2023/06/15 11:05:18.076, 106, 142, 80
2023/06/15 11:05:19.212, 107, 163, 82
2023/06/15 11:05:20.348, 108, 141, 81
2023/06/15 11:05:21.468, 105, 128, 76
2023/06/15 11:05:22.604, 110, 122, 78
2023/06/15 11:05:23.740, 105, 124, 77
2023/06/15 11:05:24.860, 110, 122, 81
2023/06/15 11:05:25.996, 103, 128, 80
2023/06/15 11:05:27.116, 108, 131, 80
2023/06/15 11:05:28.252, 104, 122, 79
2023/06/15 11:05:29.372, 101, 123, 76
2023/06/15 11:05:30.508, 102, 119, 78
2023/06/15 11:05:31.644, 97, 124, 81
2023/06/15 11:05:32.763, 102, 125, 79
2023/06/15 11:05:33.899, 100, 121, 78
2023/06/15 11:05:35.019, 105, 121, 78
2023/06/15 11:05:36.155, 103, 122, 78
2023/06/15 11:05:37.291, 104, 121, 79
2023/06/15 11:05:38.411, 103, 119, 76
2023/06/15 11:05:39.547, 102, 122, 76
2023/06/15 11:05:40.667, 101, 128, 73
2023/06/15 11:05:41.803, 99, 120, 78
2023/06/15 11:05:42.939, 101, 116, 74
2023/06/15 11:05:44.058, 98, 118, 76
2023/06/15 11:05:45.195, 102, 120, 75
2023/06/15 11:05:46.315, 105, 119, 74
2023/06/15 11:05:47.451, 104, 120, 78
2023/06/15 11:05:48.587, 107, 116, 79
2023/06/15 11:05:49.707, 106, 117, 77
2023/06/15 11:05:50.842, 104, 119, 75
2023/06/15 11:05:51.962, 101, 117, 76
2023/06/15 11:05:53.098, 99, 118, 76
2023/06/15 11:05:54.218, 98, 116, 85
2023/06/15 11:05:55.354, 101, 127, 111
2023/06/15 11:05:56.490, 98, 118, 81
2023/06/15 11:05:57.609, 101, 116, 76
2023/06/15 11:05:58.746, 98, 119, 76
2023/06/15 11:05:59.866, 99, 120, 79
2023/06/15 11:06:01.002, 99, 117, 79
2023/06/15 11:06:02.122, 99, 121, 78
2023/06/15 11:06:03.258, 98, 119, 75
2023/06/15 11:06:04.394, 101, 119, 78
2023/06/15 11:06:05.513, 97, 117, 76
2023/06/15 11:06:06.649, 100, 116, 77
2023/06/15 11:06:07.769, 97, 117, 81
2023/06/15 11:06:08.905, 102, 116, 72
2023/06/15 11:06:10.041, 101, 119, 76
2023/06/15 11:06:11.161, 103, 120, 77
2023/06/15 11:06:12.297, 102, 118, 74
2023/06/15 11:06:13.417, 103, 117, 76
2023/06/15 11:06:14.553, 98, 121, 78
2023/06/15 11:06:15.689, 95, 120, 72
2023/06/15 11:06:16.808, 97, 116, 73
2023/06/15 11:06:17.944, 97, 111, 79
2023/06/15 11:06:19.065, 94, 114, 74
2023/06/15 11:06:20.200, 98, 110, 80
2023/06/15 11:06:21.321, 99, 113, 76
2023/06/15 11:06:22.456, 101, 116, 76
2023/06/15 11:06:23.576, 97, 116, 72
2023/06/15 11:06:24.712, 97, 118, 79
2023/06/15 11:06:25.848, 99, 114, 74
2023/06/15 11:06:26.968, 95, 116, 75
2023/06/15 11:06:28.104, 95, 114, 77
2023/06/15 11:06:29.224, 98, 113, 73
2023/06/15 11:06:30.360, 95, 115, 77
2023/06/15 11:06:31.480, 96, 112, 75
2023/06/15 11:06:32.616, 95, 114, 75
2023/06/15 11:06:33.736, 98, 112, 77
2023/06/15 11:06:34.872, 102, 114, 74
2023/06/15 11:06:36.008, 101, 115, 73
2023/06/15 11:06:37.128, 96, 118, 74
2023/06/15 11:06:38.264, 102, 117, 73
2023/06/15 11:06:39.384, 97, 138, 75
2023/06/15 11:06:40.519, 98, 119, 75
2023/06/15 11:06:41.639, 99, 118, 78
2023/06/15 11:06:42.775, 95, 111, 75
2023/06/15 11:06:43.895, 94, 112, 74
2023/06/15 11:06:45.031, 95, 114, 74
2023/06/15 11:06:46.167, 98, 115, 75
2023/06/15 11:06:47.287, 98, 115, 87
2023/06/15 11:06:48.423, 97, 114, 76
2023/06/15 11:06:49.543, 95, 117, 73
2023/06/15 11:06:50.679, 98, 117, 75
2023/06/15 11:06:51.799, 98, 115, 75
2023/06/15 11:06:52.935, 97, 115, 72
2023/06/15 11:06:54.055, 99, 114, 72
2023/06/15 11:06:55.190, 95, 114, 72
2023/06/15 11:06:56.326, 99, 114, 74
2023/06/15 11:06:57.446, 97, 113, 76
2023/06/15 11:06:58.582, 97, 113, 74
2023/06/15 11:06:59.702, 98, 112, 74
2023/06/15 11:07:00.838, 92, 112, 73
2023/06/15 11:07:01.958, 94, 107, 73
2023/06/15 11:07:03.094, 95, 107, 73
2023/06/15 11:07:04.214, 97, 111, 72
2023/06/15 11:07:05.349, 95, 111, 70
2023/06/15 11:07:06.486, 91, 110, 72
2023/06/15 11:07:07.606, 98, 109, 69
2023/06/15 11:07:08.741, 96, 112, 71
2023/06/15 11:07:09.862, 98, 107, 75
2023/06/15 11:07:10.998, 93, 110, 72
2023/06/15 11:07:12.117, 93, 112, 71
2023/06/15 11:07:13.253, 99, 112, 73
2023/06/15 11:07:14.373, 96, 111, 70
2023/06/15 11:07:15.509, 93, 109, 70
2023/06/15 11:07:16.645, 94, 108, 72
2023/06/15 11:07:17.765, 95, 113, 71
2023/06/15 11:07:18.901, 97, 116, 73
2023/06/15 11:07:20.021, 98, 117, 69
2023/06/15 11:07:21.157, 93, 118, 74
2023/06/15 11:07:22.276, 93, 118, 73
2023/06/15 11:07:23.413, 96, 114, 73
2023/06/15 11:07:24.533, 94, 114, 72
2023/06/15 11:07:25.669, 96, 111, 73
2023/06/15 11:07:26.805, 95, 110, 72
2023/06/15 11:07:27.924, 94, 109, 70
2023/06/15 11:07:29.060, 96, 108, 74
2023/06/15 11:07:30.180, 96, 105, 73
2023/06/15 11:07:31.316, 93, 112, 82
2023/06/15 11:07:32.436, 96, 111, 76
2023/06/15 11:07:33.572, 97, 112, 71
2023/06/15 11:07:34.692, 91, 113, 71
2023/06/15 11:07:35.828, 96, 108, 67
2023/06/15 11:07:36.948, 92, 106, 75
2023/06/15 11:07:38.084, 96, 107, 73
2023/06/15 11:07:39.220, 93, 106, 67
2023/06/15 11:07:40.340, 95, 103, 71
2023/06/15 11:07:41.476, 99, 104, 72
2023/06/15 11:07:42.595, 96, 109, 73
2023/06/15 11:07:43.731, 94, 106, 70
2023/06/15 11:07:44.851, 97, 109, 67
2023/06/15 11:07:45.987, 96, 112, 72
2023/06/15 11:07:47.107, 95, 111, 72
2023/06/15 11:07:48.243, 94, 112, 70
2023/06/15 11:07:49.379, 92, 108, 69
2023/06/15 11:07:50.499, 91, 120, 72
2023/06/15 11:07:51.635, 96, 110, 70
2023/06/15 11:07:52.754, 96, 110, 67
2023/06/15 11:07:53.891, 97, 110, 70
2023/06/15 11:07:55.011, 95, 109, 71
2023/06/15 11:07:56.147, 92, 113, 72
2023/06/15 11:07:57.267, 96, 111, 69
2023/06/15 11:07:58.402, 92, 112, 70
2023/06/15 11:07:59.539, 91, 110, 71
2023/06/15 11:08:00.658, 95, 110, 71
2023/06/15 11:08:01.794, 97, 110, 70
2023/06/15 11:08:02.914, 95, 110, 69
2023/06/15 11:08:04.050, 94, 108, 73
2023/06/15 11:08:05.170, 95, 110, 73
2023/06/15 11:08:06.306, 94, 111, 72
2023/06/15 11:08:07.426, 92, 111, 70
2023/06/15 11:08:08.562, 96, 119, 73
2023/06/15 11:08:09.698, 96, 111, 70
2023/06/15 11:08:10.818, 93, 110, 71
2023/06/15 11:08:11.953, 95, 108, 70
2023/06/15 11:08:13.074, 92, 108, 70
2023/06/15 11:08:14.209, 96, 101, 69
2023/06/15 11:08:15.329, 92, 105, 71
2023/06/15 11:08:16.465, 96, 106, 73
2023/06/15 11:08:17.585, 92, 110, 68
2023/06/15 11:08:18.721, 92, 107, 69
2023/06/15 11:08:19.857, 94, 106, 69
2023/06/15 11:08:20.977, 91, 106, 69
2023/06/15 11:08:22.113, 92, 107, 72
2023/06/15 11:08:23.233, 97, 110, 71
2023/06/15 11:08:24.369, 93, 105, 72
2023/06/15 11:08:25.489, 95, 103, 71
2023/06/15 11:08:26.624, 96, 102, 70
2023/06/15 11:08:27.745, 92, 106, 68
2023/06/15 11:08:28.881, 95, 108, 65
2023/06/15 11:08:30.016, 93, 107, 68
2023/06/15 11:08:31.136, 95, 107, 69
2023/06/15 11:08:32.272, 95, 109, 71
2023/06/15 11:08:33.392, 93, 107, 71
2023/06/15 11:08:34.528, 93, 106, 70
2023/06/15 11:08:35.648, 96, 109, 73
2023/06/15 11:08:36.784, 98, 104, 71
2023/06/15 11:08:37.904, 90, 107, 71
2023/06/15 11:08:39.040, 95, 107, 68
2023/06/15 11:08:40.160, 92, 108, 70
2023/06/15 11:08:41.296, 91, 111, 70
2023/06/15 11:08:42.432, 92, 109, 71
2023/06/15 11:08:43.551, 92, 108, 69
2023/06/15 11:08:44.688, 96, 110, 69
2023/06/15 11:08:45.808, 95, 104, 71
2023/06/15 11:08:46.944, 92, 107, 71
2023/06/15 11:08:48.063, 95, 107, 69
2023/06/15 11:08:49.200, 97, 113, 68
2023/06/15 11:08:50.319, 97, 111, 69
2023/06/15 11:08:51.455, 94, 110, 72
2023/06/15 11:08:52.591, 93, 106, 73
2023/06/15 11:08:53.711, 94, 107, 69
2023/06/15 11:08:54.847, 94, 105, 71
2023/06/15 11:08:55.967, 92, 108, 70
2023/06/15 11:08:57.103, 92, 103, 69
2023/06/15 11:08:58.223, 90, 105, 73
2023/06/15 11:08:59.359, 94, 105, 72
2023/06/15 11:09:00.479, 92, 104, 72
2023/06/15 11:09:01.615, 88, 102, 69
2023/06/15 11:09:02.751, 92, 105, 70
2023/06/15 11:09:03.871, 92, 100, 68
2023/06/15 11:09:05.006, 93, 106, 71
2023/06/15 11:09:06.126, 96, 106, 71
2023/06/15 11:09:07.262, 93, 107, 72
2023/06/15 11:09:08.382, 94, 106, 67
2023/06/15 11:09:09.518, 92, 106, 72
2023/06/15 11:09:10.638, 96, 104, 71
2023/06/15 11:09:11.774, 93, 109, 68
2023/06/15 11:09:12.909, 92, 114, 68
2023/06/15 11:09:14.030, 94, 106, 70
2023/06/15 11:09:15.166, 94, 103, 69
2023/06/15 11:09:16.286, 94, 102, 71
2023/06/15 11:09:17.422, 92, 104, 68
2023/06/15 11:09:18.542, 93, 105, 68
2023/06/15 11:09:19.678, 90, 109, 69
2023/06/15 11:09:20.797, 92, 107, 66
2023/06/15 11:09:21.933, 94, 104, 68
2023/06/15 11:09:23.069, 92, 105, 69
2023/06/15 11:09:24.189, 91, 104, 69
2023/06/15 11:09:25.325, 93, 107, 70
2023/06/15 11:09:26.445, 94, 106, 70
2023/06/15 11:09:27.581, 93, 105, 69
2023/06/15 11:09:28.701, 95, 104, 69
2023/06/15 11:09:29.837, 93, 102, 67
2023/06/15 11:09:30.956, 91, 106, 67
2023/06/15 11:09:32.093, 86, 102, 66
2023/06/15 11:09:33.213, 91, 100, 69
2023/06/15 11:09:34.349, 93, 101, 69
2023/06/15 11:09:35.485, 93, 104, 66
2023/06/15 11:09:36.604, 93, 101, 68
2023/06/15 11:09:37.740, 90, 101, 69
2023/06/15 11:09:38.860, 91, 102, 69
2023/06/15 11:09:39.996, 91, 103, 69
2023/06/15 11:09:41.116, 94, 102, 70
2023/06/15 11:09:42.252, 93, 102, 69
2023/06/15 11:09:43.372, 94, 105, 73
2023/06/15 11:09:44.508, 96, 107, 68
2023/06/15 11:09:45.644, 93, 103, 71
2023/06/15 11:09:46.764, 93, 101, 65
2023/06/15 11:09:47.900, 89, 103, 68
2023/06/15 11:09:49.020, 91, 100, 67
2023/06/15 11:09:50.155, 95, 103, 72
2023/06/15 11:09:51.276, 93, 102, 67
2023/06/15 11:09:52.412, 92, 104, 65
2023/06/15 11:09:53.531, 91, 104, 70
2023/06/15 11:09:54.667, 92, 105, 68
2023/06/15 11:09:55.803, 92, 105, 69
2023/06/15 11:09:56.923, 93, 103, 68
2023/06/15 11:09:58.059, 91, 105, 68
2023/06/15 11:09:59.178, 92, 103, 67
2023/06/15 11:10:00.315, 92, 102, 67
2023/06/15 11:10:01.435, 91, 104, 69
2023/06/15 11:10:02.571, 90, 102, 69
2023/06/15 11:10:03.690, 88, 100, 70
2023/06/15 11:10:04.827, 92, 102, 68
2023/06/15 11:10:05.963, 93, 102, 68
2023/06/15 11:10:07.083, 91, 104, 70
2023/06/15 11:10:08.218, 89, 105, 69
2023/06/15 11:10:09.339, 90, 102, 68
2023/06/15 11:10:10.474, 91, 100, 69
2023/06/15 11:10:11.594, 90, 101, 68
2023/06/15 11:10:12.730, 91, 104, 67
2023/06/15 11:10:13.850, 90, 105, 72
2023/06/15 11:10:14.986, 92, 102, 70
2023/06/15 11:10:16.122, 93, 103, 68
2023/06/15 11:10:17.242, 92, 102, 66
2023/06/15 11:10:18.377, 88, 103, 69
2023/06/15 11:10:19.498, 92, 102, 69
2023/06/15 11:10:20.634, 90, 104, 68
2023/06/15 11:10:21.753, 92, 108, 67
2023/06/15 11:10:22.890, 90, 105, 67
2023/06/15 11:10:24.009, 91, 102, 70
2023/06/15 11:10:25.145, 91, 107, 67
2023/06/15 11:10:26.281, 89, 101, 68
2023/06/15 11:10:27.401, 89, 101, 69
2023/06/15 11:10:28.537, 89, 103, 69
2023/06/15 11:10:29.657, 91, 102, 67
2023/06/15 11:10:30.792, 93, 103, 66
2023/06/15 11:10:31.913, 93, 102, 66
2023/06/15 11:10:33.049, 93, 102, 70
2023/06/15 11:10:34.169, 92, 102, 66
2023/06/15 11:10:35.305, 93, 104, 67
2023/06/15 11:10:36.425, 90, 107, 69
2023/06/15 11:10:37.561, 93, 104, 68
2023/06/15 11:10:38.681, 88, 101, 66
2023/06/15 11:10:39.816, 88, 101, 67
2023/06/15 11:10:40.953, 88, 102, 67
2023/06/15 11:10:42.072, 89, 100, 64
2023/06/15 11:10:43.208, 90, 99, 68
2023/06/15 11:10:44.328, 91, 98, 65
2023/06/15 11:10:45.464, 89, 98, 69
2023/06/15 11:10:46.584, 89, 97, 62
2023/06/15 11:10:47.720, 89, 98, 70
2023/06/15 11:10:48.840, 93, 102, 66
2023/06/15 11:10:49.975, 94, 102, 67
2023/06/15 11:10:51.096, 93, 101, 69
2023/06/15 11:10:52.232, 95, 100, 71
2023/06/15 11:10:53.352, 93, 100, 70
2023/06/15 11:10:54.488, 92, 100, 67
2023/06/15 11:10:55.624, 89, 100, 68
2023/06/15 11:10:56.744, 87, 100, 68
2023/06/15 11:10:57.880, 87, 98, 68
2023/06/15 11:10:58.999, 89, 96, 67
2023/06/15 11:11:00.135, 91, 101, 65
2023/06/15 11:11:01.255, 87, 101, 63
2023/06/15 11:11:02.391, 89, 100, 69
2023/06/15 11:11:03.511, 86, 96, 66
2023/06/15 11:11:04.647, 87, 97, 65
2023/06/15 11:11:05.767, 89, 100, 67
2023/06/15 11:11:06.903, 89, 99, 67
2023/06/15 11:11:08.023, 91, 102, 68
2023/06/15 11:11:09.159, 92, 97, 65
2023/06/15 11:11:10.279, 90, 99, 69
2023/06/15 11:11:11.414, 88, 101, 63
2023/06/15 11:11:12.551, 89, 100, 69
2023/06/15 11:11:13.671, 87, 101, 63
2023/06/15 11:11:14.807, 89, 98, 67
2023/06/15 11:11:15.926, 89, 100, 69
2023/06/15 11:11:17.062, 88, 99, 67
2023/06/15 11:11:18.182, 90, 99, 68
2023/06/15 11:11:19.318, 89, 98, 64
2023/06/15 11:11:20.438, 91, 100, 67
2023/06/15 11:11:21.574, 89, 98, 68
2023/06/15 11:11:22.694, 90, 96, 63
2023/06/15 11:11:23.830, 89, 100, 65
2023/06/15 11:11:24.950, 93, 98, 68
2023/06/15 11:11:26.086, 89, 100, 64
2023/06/15 11:11:27.206, 87, 102, 68
2023/06/15 11:11:28.342, 90, 98, 67
2023/06/15 11:11:29.461, 89, 103, 68
2023/06/15 11:11:30.597, 88, 95, 67
2023/06/15 11:11:31.717, 90, 99, 68
2023/06/15 11:11:32.853, 88, 99, 67
2023/06/15 11:11:33.973, 87, 99, 67
2023/06/15 11:11:35.109, 90, 96, 68
2023/06/15 11:11:36.229, 89, 101, 76
2023/06/15 11:11:37.365, 88, 98, 82
2023/06/15 11:11:38.485, 90, 98, 71
2023/06/15 11:11:39.621, 88, 97, 79
2023/06/15 11:11:40.741, 88, 98, 65
2023/06/15 11:11:41.877, 89, 97, 65
2023/06/15 11:11:42.997, 89, 97, 68
2023/06/15 11:11:44.133, 88, 101, 65
2023/06/15 11:11:45.269, 88, 99, 64
2023/06/15 11:11:46.388, 89, 102, 66
2023/06/15 11:11:47.524, 87, 99, 65